Retour au catalogue

STARLINK-31324

ActifCommunicationsVLEO
NORAD 58976·PAYLOAD·🇺🇸 United States

Lancé Feb 15, 2024 depuis Vandenberg Space Force Base

Loading…

Prochains Passages (prochaines 24 heures)

TLE

FraisSource: CelesTrak SupGP

Époque: Sep 14, 2026, 14:36 UTC

1 58976C 24031M   26257.60881944  .00057196  00000+0  16899-2 0  2576
2 58976  53.1569 137.3641 0001221 100.1859 244.3294 15.34361997    18

Suivez STARLINK-31324 en temps réel avec AllMySat

Download on the App Store